DW7601 San Vito IT current weather conditions

sailwx.info

Wind from 317 at 7 knots gusting 11

Air temperature 10.0° C
Dewpoint 4.4° C

Last reported at 2015-Mar-04 23:51 UTC.
Time now 2015-Mar-05 00:23 UTC

Location: N 39°27' E 009°32'.
View on Google Maps.

See reports from other nearby stations

  
Tides and Currents Weather Stations Pressure Air Temp Water Temp Dewpoint Dewpoint Depression Visibility Wind Speed Wind Dir Waves Ship Positions
date/time (UTC)wind fromknots sea level pressurealtimeterstation pressurevisibilityair tempwater tempwave heightnotes
2015-Mar-04 23:51 317 7 gusting 11 10.0
2015-Mar-04 23:41 336 10 gusting 15 10.0
2015-Mar-04 23:31 268 6 gusting 15 10.0
2015-Mar-04 23:21 276 7 gusting 10 10.0
2015-Mar-04 23:11 017 7 gusting 12 10.0
2015-Mar-04 23:01 321 7 gusting 12 10.0
2015-Mar-04 22:51 019 8 gusting 13 10.6
2015-Mar-04 22:41 355 10 gusting 14 10.6
2015-Mar-04 22:31 016 12 gusting 19 10.6
2015-Mar-04 22:21 292 8 gusting 19 11.1
2015-Mar-04 22:11 315 10 gusting 13 11.1
2015-Mar-04 22:01 313 9 gusting 24 11.7
2015-Mar-04 21:51 267 9 gusting 24 11.7
2015-Mar-04 21:41 298 7 gusting 19 12.8
2015-Mar-04 21:31 313 6 gusting 10 13.3
2015-Mar-04 21:21 335 5 gusting 6 13.9
2015-Mar-04 21:11 018 2 gusting 6 13.9
2015-Mar-04 21:01 335 1 gusting 5 13.9
2015-Mar-04 20:51 290 13.9
2015-Mar-04 20:41 350 13.9
2015-Mar-04 20:31 313 0 gusting 4 13.9
2015-Mar-04 20:21 271 0 gusting 1 14.4
2015-Mar-04 20:11 256 14.4
2015-Mar-04 20:01 006 14.4
2015-Mar-04 19:51 016 1 gusting 5 15.0
2015-Mar-04 19:41 295 0 gusting 4 15.0
2015-Mar-04 19:31 270 0 gusting 0 15.0
2015-Mar-04 19:21 223 0 gusting 1 15.0
2015-Mar-04 19:11 197 0 gusting 1 15.0
2015-Mar-04 19:01 240 0 gusting 1 15.6
2015-Mar-04 18:51 221 0 gusting 2 15.6
2015-Mar-04 18:41 177 1 gusting 2 15.6
2015-Mar-04 18:31 174 0 gusting 1 15.6
2015-Mar-04 18:21 265 1 gusting 1 15.6
2015-Mar-04 18:11 025 1 gusting 2 15.6
2015-Mar-04 18:01 185 1 gusting 2 16.1
2015-Mar-04 17:51 176 0 gusting 2 16.1
2015-Mar-04 17:41 200 0 gusting 2 16.1
2015-Mar-04 17:31 196 1 gusting 2 16.7
2015-Mar-04 17:21 182 1 gusting 5 16.7
2015-Mar-04 17:11 182 2 gusting 6 17.2
2015-Mar-04 17:01 180 2 gusting 6 17.8
2015-Mar-04 16:51 184 1 gusting 2 17.8
2015-Mar-04 16:41 182 1 gusting 4 18.3
2015-Mar-04 16:31 265 1 gusting 4 18.3
2015-Mar-04 16:21 027 0 gusting 1 18.9
2015-Mar-04 16:11 287 0 gusting 2 18.9
2015-Mar-04 16:01 093 0 gusting 1 19.4
2015-Mar-04 15:51 112 0 gusting 1 19.4
2015-Mar-04 15:41 177 0 gusting 1 20.0
2015-Mar-04 15:31 202 0 gusting 1 20.6
2015-Mar-04 15:21 266 0 gusting 1 21.1
2015-Mar-04 15:11 241 0 gusting 2 20.6
2015-Mar-04 15:01 117 1 gusting 4 20.0
2015-Mar-04 14:51 200 1 gusting 4 20.6
2015-Mar-04 14:41 177 1 gusting 2 21.1
2015-Mar-04 14:31 173 1 gusting 2 21.1
2015-Mar-04 14:21 110 1 gusting 4 21.7
2015-Mar-04 14:11 087 1 gusting 4 22.2
2015-Mar-04 14:01 219 1 gusting 5 23.3
2015-Mar-04 13:51 090 1 gusting 5 22.8
2015-Mar-04 13:41 340 1 gusting 4 23.3
2015-Mar-04 13:31 219 1 gusting 6 23.3
2015-Mar-04 13:21 024 1 gusting 4 23.3
2015-Mar-04 13:11 156 1 gusting 4 23.3
2015-Mar-04 13:01 030 1 gusting 2 24.4
2015-Mar-04 12:51 093 1 gusting 4 24.4
2015-Mar-04 12:41 108 1 gusting 2 24.4
2015-Mar-04 12:31 338 24.4
2015-Mar-04 12:21 338 23.9
2015-Mar-04 12:11 338 23.9
2015-Mar-04 12:01 338 23.3
2015-Mar-04 11:51 338 23.3
2015-Mar-04 11:41 338 23.3
2015-Mar-04 11:31 338 23.3
2015-Mar-04 11:21 338 23.3
2015-Mar-04 11:11 338 22.8
2015-Mar-04 11:01 338 22.8
2015-Mar-04 10:51 338 22.2
2015-Mar-04 10:41 338 22.2
2015-Mar-04 10:31 338 21.7
2015-Mar-04 10:21 338 20.6
2015-Mar-04 10:11 338 20.6
2015-Mar-04 10:01 338 20.6
2015-Mar-04 09:51 338 19.4
2015-Mar-04 09:41 338 19.4
2015-Mar-04 09:31 338 18.9
2015-Mar-04 09:21 338 18.3
2015-Mar-04 09:11 338 18.3
2015-Mar-04 09:01 338 17.2
2015-Mar-04 08:51 338 16.7
2015-Mar-04 08:41 338 16.1
2015-Mar-04 08:31 338 15.6
2015-Mar-04 08:21 338 15.6
2015-Mar-04 08:11 338 0 gusting 1 15.6
2015-Mar-04 08:01 338 0 gusting 1 15.0
2015-Mar-04 07:51 022 0 gusting 0 15.0
2015-Mar-04 07:41 064 14.4
2015-Mar-04 07:31 13.9
2015-Mar-04 07:21 046 13.9
2015-Mar-04 07:11 026 13.3
2015-Mar-04 07:01 074 13.3
2015-Mar-04 06:51 015 13.3
2015-Mar-04 06:41 028 13.3
2015-Mar-04 06:31 090 13.3
2015-Mar-04 06:21 061 12.8
2015-Mar-04 06:11 270 13.3
2015-Mar-04 06:01 225 13.3
2015-Mar-04 05:51 186 13.3
2015-Mar-04 05:41 286 13.3
2015-Mar-04 05:31 223 13.3
2015-Mar-04 05:21 202 13.3
2015-Mar-04 05:11 266 13.3
2015-Mar-04 05:01 265 13.3
2015-Mar-04 04:51 234 13.3
2015-Mar-04 04:41 276 13.9
2015-Mar-04 04:31 248 0 gusting 1 13.9
2015-Mar-04 04:21 325 0 gusting 1 13.9
2015-Mar-04 04:11 009 1 gusting 2 14.4
2015-Mar-04 04:01 016 1 gusting 5 14.4
2015-Mar-04 03:51 340 1 gusting 2 14.4
2015-Mar-04 03:41 241 1 gusting 5 14.4
2015-Mar-04 03:31 022 1 gusting 5 14.4
2015-Mar-04 03:21 338 2 gusting 5 15.0
2015-Mar-04 03:11 289 1 gusting 5 15.0
2015-Mar-04 03:01 068 2 gusting 6 15.0
2015-Mar-04 02:51 022 2 gusting 4 15.0
2015-Mar-04 02:41 022 2 gusting 5 15.6
2015-Mar-04 02:31 022 1 gusting 4 15.6
2015-Mar-04 02:21 15.6
2015-Mar-04 02:11 15.6
2015-Mar-04 02:01 022 1 gusting 4 16.1
2015-Mar-04 01:51 338 0 gusting 1 15.6
2015-Mar-04 01:41 16.1
2015-Mar-04 01:31 180 1 gusting 4 16.1
2015-Mar-04 01:21 16.1
2015-Mar-04 01:11 022 2 gusting 5 16.7
2015-Mar-04 01:01 022 2 gusting 6 16.7
2015-Mar-04 00:51 202 4 gusting 6 16.7
2015-Mar-04 00:41 022 2 gusting 5 16.7
2015-Mar-04 00:31 045 2 gusting 5 16.7
2015-Mar-04 00:21 338 2 gusting 5 16.7
2015-Mar-04 00:11 16.7
2015-Mar-04 00:01 022 2 gusting 5 16.7
2015-Mar-03 23:51 022 2 gusting 5 16.7
2015-Mar-03 23:41 16.7
2015-Mar-03 23:31 068 17.2
2015-Mar-03 23:21 292 1 gusting 4 17.2
2015-Mar-03 23:11 338 1 gusting 4 17.2
2015-Mar-03 23:01 292 1 gusting 5 17.8
2015-Mar-03 22:51 022 1 gusting 4 17.8
2015-Mar-03 22:41 270 2 gusting 7 17.8
2015-Mar-03 22:31 338 2 gusting 7 17.8
2015-Mar-03 22:21 270 0 gusting 5 17.8
2015-Mar-03 22:11 248 1 gusting 1 17.8
2015-Mar-03 22:01 270 1 gusting 4 17.8
2015-Mar-03 21:51 338 1 gusting 6 17.8
2015-Mar-03 21:41 045 0 gusting 1 17.8
2015-Mar-03 21:31 112 0 gusting 2 17.8
2015-Mar-03 21:21 270 2 gusting 5 17.8
2015-Mar-03 21:11 338 2 gusting 6 17.8
2015-Mar-03 21:01 270 1 gusting 6 17.8
2015-Mar-03 20:51 225 1 gusting 5 17.8
2015-Mar-03 20:41 270 1 gusting 5 17.8
2015-Mar-03 20:31 022 2 gusting 7 17.8
2015-Mar-03 20:21 045 1 gusting 2 17.8
2015-Mar-03 20:11 270 1 gusting 6 17.8
2015-Mar-03 20:01 338 1 gusting 6 17.8
2015-Mar-03 19:51 112 1 gusting 5 18.3
2015-Mar-03 19:41 090 1 gusting 6 18.3
2015-Mar-03 19:31 270 1 gusting 2 18.3
2015-Mar-03 19:21 022 1 gusting 5 18.3
2015-Mar-03 19:11 225 2 gusting 6 18.3
2015-Mar-03 19:01 338 4 gusting 6 18.3
2015-Mar-03 18:51 292 4 gusting 7 18.3
2015-Mar-03 18:41 270 3 gusting 6 18.3
2015-Mar-03 18:31 158 2 gusting 8 18.9
2015-Mar-03 18:21 338 2 gusting 8 18.9
2015-Mar-03 18:11 270 2 gusting 6 18.9
2015-Mar-03 18:01 338 0 gusting 1 18.9
2015-Mar-03 17:51 292 1 gusting 2 19.4
2015-Mar-03 17:41 315 1 gusting 5 19.4
2015-Mar-03 17:31 338 2 gusting 7 19.4
2015-Mar-03 17:21 292 2 gusting 5 20.0
2015-Mar-03 17:11 270 2 gusting 5 20.0
2015-Mar-03 17:01 315 2 gusting 4 20.6
2015-Mar-03 16:51 338 1 gusting 5 20.6
2015-Mar-03 16:41 292 2 gusting 4 21.1
2015-Mar-03 16:31 338 2 gusting 5 21.1
2015-Mar-03 16:21 21.7
2015-Mar-03 16:11 22.2
2015-Mar-03 16:01 315 3 gusting 5 22.8
2015-Mar-03 15:51 270 4 gusting 6 22.8
2015-Mar-03 15:41 22.8
2015-Mar-03 15:31 270 4 gusting 6 23.3
2015-Mar-03 15:21 270 3 gusting 5 23.3
2015-Mar-03 15:11 270 4 gusting 7 23.9
2015-Mar-03 15:01 338 4 gusting 8 23.9
2015-Mar-03 14:51 022 3 gusting 7 23.9
2015-Mar-03 14:41 338 5 gusting 13 23.9
2015-Mar-03 14:31 338 6 gusting 10 23.9
2015-Mar-03 14:21 248 5 gusting 8 23.3
2015-Mar-03 14:11 23.9
2015-Mar-03 14:01 292 4 gusting 10 24.4
2015-Mar-03 13:51 022 2 gusting 5 25.0
2015-Mar-03 13:41 090 4 gusting 12 25.0
2015-Mar-03 13:31 315 4 gusting 7 24.4
2015-Mar-03 13:21 338 4 gusting 6 24.4
2015-Mar-03 13:11 225 6 gusting 13 23.9
2015-Mar-03 13:01 22.8
2015-Mar-03 12:51 338 4 gusting 8 22.2
2015-Mar-03 12:41 270 2 gusting 8 22.2
2015-Mar-03 12:31 338 2 gusting 6 21.7
2015-Mar-03 12:21 022 4 gusting 8 21.7
2015-Mar-03 12:11 270 4 gusting 7 21.7
2015-Mar-03 12:01 045 4 gusting 7 21.1
2015-Mar-03 11:51 292 5 gusting 10 21.1
2015-Mar-03 11:41 270 4 gusting 6 21.1
2015-Mar-03 11:31 270 4 gusting 11 21.1
2015-Mar-03 11:21 022 1 gusting 6 20.6
2015-Mar-03 11:11 090 0 gusting 4 20.6
2015-Mar-03 11:01 112 1 gusting 1 20.0
2015-Mar-03 10:51 022 1 gusting 4 19.4
2015-Mar-03 10:41 045 1 gusting 2 19.4
2015-Mar-03 10:31 068 0 gusting 1 18.9
2015-Mar-03 10:21 18.9
2015-Mar-03 10:11 090 1 gusting 4 18.9
2015-Mar-03 10:01 045 1 gusting 4 18.3
2015-Mar-03 09:51 068 1 gusting 4 18.3
2015-Mar-03 09:41 090 2 gusting 4 18.3
2015-Mar-03 09:31 18.3
2015-Mar-03 09:21 135 1 gusting 4 18.3
2015-Mar-03 09:11 022 1 gusting 5 18.3
2015-Mar-03 09:01 022 2 gusting 6 18.3
2015-Mar-03 08:51 022 1 gusting 5 18.3
2015-Mar-03 08:41 045 2 gusting 4 17.8
2015-Mar-03 08:31 17.2
2015-Mar-03 08:21 068 1 gusting 2 17.2
2015-Mar-03 08:11 022 1 gusting 4 16.7
2015-Mar-03 08:01 022 1 gusting 2 16.7
2015-Mar-03 07:51 16.1
2015-Mar-03 07:41 16.1
2015-Mar-03 07:31 045 2 gusting 6 16.1
2015-Mar-03 07:21 338 1 gusting 1 16.1
2015-Mar-03 07:11 292 1 gusting 4 16.1
2015-Mar-03 07:01 018 1 gusting 4 16.1
2015-Mar-03 06:51 16.1
2015-Mar-03 06:41 312 1 gusting 5 16.1
2015-Mar-03 06:31 281 1 gusting 4 16.1
2015-Mar-03 06:21 345 1 gusting 4 16.1
2015-Mar-03 06:11 013 1 gusting 4 16.1
2015-Mar-03 06:01 005 2 gusting 2 16.1
2015-Mar-03 05:51 16.7
2015-Mar-03 05:41 037 4 gusting 6 16.7
2015-Mar-03 05:31 296 4 gusting 6 16.7
2015-Mar-03 05:21 280 5 gusting 10 16.7
2015-Mar-03 05:11 276 2 gusting 10 16.7
2015-Mar-03 05:01 029 2 gusting 6 16.7
2015-Mar-03 04:51 016 4 gusting 6 16.7
2015-Mar-03 04:41 042 5 gusting 8 16.7
2015-Mar-03 04:31 022 4 gusting 8 16.7
2015-Mar-03 04:21 019 2 gusting 5 16.7
2015-Mar-03 04:11 297 2 gusting 6 16.7
2015-Mar-03 04:01 018 1 gusting 6 16.7
2015-Mar-03 03:51 057 1 gusting 5 16.7
2015-Mar-03 03:41 055 1 gusting 2 16.7
2015-Mar-03 03:31 090 1 gusting 6 16.7
2015-Mar-03 03:21 079 1 gusting 4 16.7
2015-Mar-03 03:11 087 1 gusting 4 16.7
2015-Mar-03 03:01 030 2 gusting 6 16.7
2015-Mar-03 02:51 058 3 gusting 6 16.7
2015-Mar-03 02:41 022 4 gusting 10 16.7
2015-Mar-03 02:21 022 6 gusting 13 17.2
2015-Mar-03 02:11 342 6 gusting 10 17.2
2015-Mar-03 02:01 328 6 gusting 13 17.2
2015-Mar-03 01:51 302 6 gusting 8 17.2
2015-Mar-03 01:41 298 6 gusting 15 17.2
2015-Mar-03 01:31 236 6 gusting 10 17.2
2015-Mar-03 01:21 061 6 gusting 7 17.2
2015-Mar-03 01:11 014 6 gusting 13 16.7
2015-Mar-03 01:01 322 6 gusting 13 16.7
2015-Mar-03 00:51 349 5 gusting 8 16.7
2015-Mar-03 00:41 059 6 gusting 10 16.7
2015-Mar-03 00:31 16.7
2015-Mar-03 00:21 004 5 gusting 10 16.7
2015-Mar-03 00:11 188 5 gusting 7 16.7